Home > Weather > Västerås > Past weeks

Flag for Sweden Past Weather in Västerås, Sweden — Yesterday and Last 2 Weeks

Now
66 °F

Partly sunny.


Feels Like: 66 °F
Forecast: 56 / 72 °F
Wind: 12 mph from South

Location: Vasteras / Hasslo

Current Time: Jul 26, 2016 at 8:30:25 AM

Latest Report: Jul 26, 2016 at 7:50 AM


Visibility: N/A

Pressure: 29.95 "Hg

Humidity: 83%

Dew Point: 61 °F

Location of VästeråsLocation

Past Weather in Västerås — Graph

°F

Västerås Temperature Yesterday

Maximum temperature yesterday: 84 °F (at 1:20 PM)
Minimum temperature yesterday: 55 °F (at 3:50 AM)
Average temperature yesterday: 72 °F

High & Low Weather Summary for the Past Weeks

 TemperatureHumidityPressure
High84 °F (Jul 24, 2:20 PM)100% (Jul 15, 1:50 AM)30.15 "Hg (Jul 15, 1:50 AM)
Low46 °F (Jul 19, 3:20 AM)30% (Jul 21, 2:50 PM)29.45 "Hg (Jul 11, 4:20 PM)
Average65 °F69%29.90 "Hg
* Reported Jul 11 7:20 AM — Jul 26 7:20 AM, Västerås, Weather by CustomWeather, © 2016

Note: Actual official high and low records may vary slightly from our data, if they occured in-between our weather recording intervals... More about our weather records

Advertising

Västerås Weather History for the Previous 24 Hours

Scroll right to see more
 ConditionsComfort  
Time TempWeatherWind HumidityBarometerVisibility
7:20 AM
Tue, Jul 26
66 °FLow clouds.8 mph88%29.95 "HgN/A
6:50 AM64 °FPassing clouds.7 mph94%29.95 "HgN/A
6:20 AM64 °FPassing clouds.6 mph88%29.95 "Hg4 mi
5:50 AM59 °FFog.1 mph100%29.98 "Hg3 mi
5:20 AM59 °FFog.2 mph94%29.98 "Hg3 mi
4:50 AM57 °FFog.5 mph94%29.98 "Hg3 mi
4:20 AM59 °FCool.3 mph94%29.98 "Hg5 mi
3:50 AM59 °FCool.3 mph88%29.98 "HgN/A
3:20 AM59 °FCool.3 mph88%29.98 "HgN/A
2:50 AM61 °FCool.5 mph88%29.98 "HgN/A
2:20 AM59 °FCool.6 mph88%29.98 "HgN/A
1:50 AM59 °FCool.No wind94%29.98 "HgN/A
1:20 AM59 °FCool.1 mph88%30.01 "HgN/A
12:50 AM63 °FMild.2 mph83%30.01 "HgN/A
12:20 AM63 °FMild.2 mph83%30.01 "HgN/A
11:50 PM
Mon, Jul 25
66 °FMild.5 mph73%30.01 "HgN/A
11:20 PM66 °FMild.6 mph73%30.01 "HgN/A
10:50 PM66 °FMild.5 mph73%30.01 "HgN/A
10:20 PM66 °FMild.6 mph73%30.01 "HgN/A
9:50 PM70 °FSunny.5 mph64%30.01 "Hg10 mi
9:20 PM72 °FSunny.8 mph61%30.01 "Hg10 mi
8:50 PM75 °FPassing clouds.5 mph54%30.01 "HgN/A
8:20 PM77 °FSunny.3 mph51%30.01 "Hg10 mi
7:50 PM77 °FSunny.5 mph54%30.01 "Hg10 mi
7:20 PM79 °FSunny.10 mph48%29.98 "Hg10 mi
6:50 PM81 °FSunny.13 mph45%29.98 "Hg10 mi
6:20 PM82 °FSunny.12 mph45%29.98 "Hg10 mi
5:50 PM82 °FSunny.13 mph45%29.98 "Hg10 mi
5:20 PM82 °FPassing clouds.10 mph45%30.01 "HgN/A
4:50 PM81 °FSunny.13 mph48%30.01 "Hg10 mi
4:20 PM84 °FPassing clouds.13 mph37%30.01 "HgN/A
3:50 PM84 °FSunny.16 mph43%30.01 "Hg10 mi
3:20 PM84 °FPassing clouds.7 mph40%30.01 "HgN/A
2:50 PM84 °FPassing clouds.7 mph40%30.01 "HgN/A
2:20 PM84 °FPassing clouds.8 mph37%30.04 "HgN/A
1:50 PM84 °FPassing clouds.7 mph40%30.04 "HgN/A
1:20 PM84 °FSunny.3 mph37%30.04 "Hg10 mi
12:50 PM82 °FSunny.7 mph37%30.04 "Hg10 mi
12:20 PM82 °FPassing clouds.6 mph42%30.04 "HgN/A
11:50 AM82 °FPassing clouds.5 mph42%30.04 "HgN/A
11:20 AM81 °FSunny.7 mph48%30.07 "Hg10 mi
10:50 AM81 °FPassing clouds.3 mph51%30.07 "HgN/A
10:20 AM79 °FSunny.2 mph58%30.07 "Hg10 mi
9:50 AM79 °FPassing clouds.3 mph54%30.07 "HgN/A
9:20 AM75 °FSunny.2 mph61%30.07 "Hg10 mi
8:50 AM73 °FSunny.2 mph65%30.07 "Hg10 mi
8:20 AM73 °FSunny.No wind65%30.07 "Hg10 mi
Weather by CustomWeather, © 2016

See weather overviewHow to use our weather pages